Waarnemingen

Advertentie
Mijn weer
Manschnow, Duitsland (10396): temperatuur & dauwpunt: 18.10.2018 00:00:00 - 24.10.2018 00:00:00 (CEST)Manschnow, Duitsland (10396): temperatuur 5cm & temperatuur -5cm: 18.10.2018 00:00:00 - 24.10.2018 00:00:00 (CEST)Manschnow, Duitsland (10396): temperatuur -20cm & temperatuur -100cm: 18.10.2018 00:00:00 - 24.10.2018 00:00:00 (CEST)Manschnow, Duitsland (10396): windsnelheid & windstoten: 18.10.2018 00:00:00 - 24.10.2018 00:00:00 (CEST)Manschnow, Duitsland (10396): windrichting: 18.10.2018 00:00:00 - 24.10.2018 00:00:00 (CEST)Manschnow, Duitsland (10396): luchtdruk: 18.10.2018 00:00:00 - 24.10.2018 00:00:00 (CEST)Manschnow, Duitsland (10396): zicht: 18.10.2018 00:00:00 - 24.10.2018 00:00:00 (CEST)Manschnow, Duitsland (10396): Zonneschijnduur: 18.10.2018 00:00:00 - 24.10.2018 00:00:00 (CEST)Manschnow, Duitsland (10396): neerslag: 18.10.2018 00:00:00 - 24.10.2018 00:00:00 (CEST)
Datum & Tijd tt [°C] td [°C] tt 5cm [°C] tt -5cm [°C] tt -20cm [°C] tt -100cm [°C] ff [km/u] ff [kn] fx [km/u] fx [kn] dd ppp [hPa] vv [km] sd [min] rr [mm]
24.10.2018 00:00:00 11,4 7,3 10,5 9,1 9,8 14,0 32 17 61 33 WNW 1004,5 68 0 0,0
23.10.2018 23:00:00 11,4 7,8 10,3 9,3 9,8 14,0 33 18 63 34 WNW 1004,8 70 0 0,0
23.10.2018 22:00:00 11,5 7,7 10,3 9,7 9,7 14,0 42 23 63 34 WNW 1004,4 65 0 0,0
23.10.2018 21:00:00 11,3 9,4 10,5 10,0 9,6 14,0 32 17 55 30 WNW 1004,9 53 0 2,2
23.10.2018 20:00:00 11,7 9,5 10,6 9,9 9,5 14,1 35 19 56 30 W 1005,1 38 0 0,1
23.10.2018 19:00:00 11,1 9,8 10,4 9,7 9,4 14,1 30 16 47 25 W 1005,6 30 0 1,8
23.10.2018 18:00:00 10,7 9,4 10,0 9,5 9,2 14,1 29 15 46 25 W 1005,7 4,9 0 0,9
23.10.2018 17:00:00 10,4 9,0 9,7 9,4 9,1 14,1 29 16 48 26 W 1006,0 5 0 1,5
23.10.2018 16:00:00 9,7 8,5 9,2 9,1 8,9 14,1 28 15 49 27 WZW 1007,1 4,0 0 0,4
23.10.2018 15:00:00 9,4 7,8 8,8 9,0 8,7 14,1 27 15 53 29 WZW 1008,0 11 0 0,0
23.10.2018 14:00:00 9,4 7,0 9,0 8,8 8,5 14,1 35 19 61 33 WZW 1009,0 12 0 0,0
23.10.2018 13:00:00 8,5 6,0 8,3 7,7 8,4 14,2 30 16 55 30 WZW 1010,4 20 0 0,0
23.10.2018 12:00:00 7,8 5,7 7,0 7,3 8,3 14,2 29 16 49 26 WZW 1011,8 12 0 0,5
23.10.2018 11:00:00 7,4 4,8 6,4 6,9 8,2 14,2 24 13 41 22 WZW 1013,2 8 0 0,8
23.10.2018 10:00:00 7,6 3,3 7,1 6,5 8,1 14,2 27 15 44 24 WZW 1014,2 25 0 0,0
23.10.2018 09:00:00 7,0 3,0 6,6 6,0 8,0 14,2 29 16 44 24 ZW 1015,4 35 0 0,0
23.10.2018 08:00:00 6,4 3,0 5,9 5,6 8,0 14,2 24 13 38 20 ZW 1017,6 38 0 0,0
23.10.2018 07:00:00 5,9 2,7 5,3 5,1 8,0 14,2 23 13 36 20 ZW 1018,8 41 0 0,0
23.10.2018 06:00:00 5,0 2,4 4,2 4,5 8,1 14,2 19 11 29 15 ZW 1020,6 33 0 0,0
23.10.2018 05:00:00 4,6 2,2 3,5 4,3 8,3 14,2 18 10 26 14 ZW 1022,3 31 0 0,0
23.10.2018 04:00:00 4,3 2,2 3,1 4,1 8,4 14,3 16 9 25 14 ZW 1023,6 29 0 0,0
23.10.2018 03:00:00 3,7 1,6 1,8 3,7 8,7 14,3 11 6 18 10 ZW 1024,8 29 0 0,0
23.10.2018 02:00:00 2,2 0,7 -0,3 4,0 9,0 14,3 5 3 13 7 ZW 1026,0 25 0 0,0
23.10.2018 01:00:00 4,1 1,8 1,5 4,2 9,3 14,3 8 5 13 7 WZW 1026,8 32 0 0,0
23.10.2018 00:00:00 2,8 1,4 -0,2 4,6 9,6 14,3 6 3 9 5 ZW 1027,4 31 0 0,0
22.10.2018 23:00:00 2,5 0,8 0,5 5,1 9,9 14,3 5 3 11 6 Z 1027,9 30 0 0,0
22.10.2018 22:00:00 4,3 2,0 1,7 5,6 10,3 14,3 8 5 13 7 W 1028,1 37 0 0,0
22.10.2018 21:00:00 4,8 2,8 1,6 6,4 10,6 14,3 7 4 10 6 W 1028,0 38 0 0,0
22.10.2018 20:00:00 5,2 3,5 2,8 7,3 10,9 14,3 9 5 14 8 WNW 1027,9 33 0 0,0
22.10.2018 19:00:00 7,2 4,8 4,7 8,6 11,0 14,4 8 4 14 8 NW 1027,7 38 0 0,0
22.10.2018 18:00:00 9,5 6,5 7,3 10,4 11,0 14,4 12 6 26 14 WNW 1027,3 34 29 0,0
22.10.2018 17:00:00 11,5 8,6 12,8 11,6 10,8 14,4 17 9 27 14 WNW 1026,4 43 17 0,0
22.10.2018 16:00:00 10,3 8,4 10,3 11,2 10,7 14,4 12 7 19 11 WNW 1026,6 51 0 0,0
22.10.2018 15:00:00 9,8 7,5 9,4 10,9 10,5 14,4 7 4 25 14 NW 1026,2 22 0 1,0
22.10.2018 14:00:00 9,7 8,9 9,9 10,4 10,4 14,4 14 8 22 12 WNW 1026,0 2,7 0 0,5
22.10.2018 13:00:00 9,1 7,7 9,1 10,7 10,1 14,4 12 7 26 14 WNW 1025,9 3,4 0 0,1
22.10.2018 12:00:00 10,2 5,4 11,8 10,8 9,9 14,4 8 4 13 7 WZW 1025,7 15 0 0,0
22.10.2018 11:00:00 8,5 4,3 9,1 9,5 9,7 14,4 8 4 18 10 WZW 1025,7 16 0 0,0
22.10.2018 10:00:00 7,7 4,2 8,2 8,3 9,6 14,4 6 3 13 7 WZW 1025,7 14 0 0,0
22.10.2018 09:00:00 6,2 3,4 6,5 7,2 9,7 14,4 8 4 11 6 Z 1025,5 13 0 0,0
22.10.2018 08:00:00 4,0 2,6 4,0 6,3 9,8 14,4 5 3 7 4 ZZO 1025,4 10 0 0,0
22.10.2018 07:00:00 3,2 1,9 0,9 6,0 9,9 14,4 5 3 9 5 ZZO 1025,4 9 0 0,0
22.10.2018 06:00:00 3,5 2,2 0,9 6,3 10,1 14,5 5 3 7 4 ZZO 1025,7 8 0 0,0
22.10.2018 05:00:00 4,6 3,1 3,2 6,8 10,3 14,5 4 2 8 5 ZO 1025,7 10 0 0,0
22.10.2018 04:00:00 3,2 2,2 1,6 6,2 10,5 14,5 5 3 8 4 ZO 1026,2 7 0 0,0
22.10.2018 03:00:00 3,1 2,0 -0,1 6,3 10,8 14,5 4 2 10 5 ZZO 1026,7 7 0 0,0
22.10.2018 02:00:00 2,8 1,5 0,5 6,7 11,1 14,5 7 4 9 5 ZZO 1026,9 9 0 0,0
22.10.2018 01:00:00 2,9 1,4 1,2 7,1 11,4 14,5 4 2 5 3 ZO 1027,4 8 0 0,0
22.10.2018 00:00:00 4,3 3,0 0,7 7,5 11,7 14,5 4 2 5 3 ZZO 1027,5 9 0 0,0
21.10.2018 23:00:00 5,2 3,4 2,4 8,0 12,0 14,5 5 3 9 5 ZZO 1027,6 12 0 0,0
21.10.2018 22:00:00 5,0 2,7 1,7 8,5 12,4 14,5 6 3 8 4 ZZO 1027,7 16 0 0,0
21.10.2018 21:00:00 5,3 2,6 2,5 9,3 12,8 14,5 6 3 8 5 ZZO 1027,9 30 0 0,0
21.10.2018 20:00:00 7,2 3,6 2,8 10,2 13,1 14,5 4 2 7 4 ZZO 1028,0 34 0 0,0
21.10.2018 19:00:00 8,6 3,6 4,1 11,6 13,3 14,5 5 3 8 4 ZZW 1028,0 36 0 0,0
21.10.2018 18:00:00 11,8 4,4 7,8 13,4 13,4 14,5 5 3 11 6 ZW 1027,7 50 48 0,0
21.10.2018 17:00:00 14,3 4,9 14,6 15,2 13,2 14,6 8 5 17 9 WZW 1027,9 42 58 0,0
21.10.2018 16:00:00 14,8 4,4 16,8 16,5 12,8 14,6 10 6 16 9 ZZW 1028,3 37 59 0,0
21.10.2018 15:00:00 14,0 5,2 16,0 16,4 12,2 14,6 6 3 14 8 W 1028,7 44 37 0,0
21.10.2018 14:00:00 13,9 5,6 15,3 16,4 11,6 14,6 5 3 12 7 ZW 1028,9 35 54 0,0
21.10.2018 13:00:00 13,1 6,3 16,1 15,2 10,9 14,6 6 3 9 5 Z 1029,2 22 60 0,0
21.10.2018 12:00:00 12,4 6,5 13,8 12,8 10,4 14,6 2 1 6 3 ZW 1029,8 21 60 0,0
21.10.2018 11:00:00 9,4 5,2 12,0 10,2 10,1 14,6 2 1 8 4 Z 1030,1 17 60 0,0
21.10.2018 10:00:00 6,9 4,0 9,0 7,7 10,1 14,6 2 1 6 3 ZW 1029,8 9 53 0,0
21.10.2018 09:00:00 2,6 2,0 2,7 6,0 10,3 14,6 4 2 5 3 ZO 1029,4 4,2 1 0,0
21.10.2018 08:00:00 1,7 0,9 -0,5 5,6 10,6 14,6 3 1 5 3 W 1028,9 5 0 0,0
21.10.2018 07:00:00 1,6 0,7 -1,0 5,9 10,9 14,6 3 2 5 3 Z 1028,6 7 0 0,0
21.10.2018 06:00:00 2,2 1,4 -0,8 6,3 11,2 14,6 3 2 6 3 ZZW 1028,4 6 0 0,0
21.10.2018 05:00:00 2,5 1,6 -0,2 6,9 11,5 14,6 4 2 9 5 W 1028,1 12 0 0,0
21.10.2018 04:00:00 3,6 1,9 0,5 7,4 11,9 14,6 4 2 7 4 W 1028,0 11 0 0,0
21.10.2018 03:00:00 3,2 1,2 0,6 8,0 12,2 14,6 3 1 6 3 W 1028,2 17 0 0,0
21.10.2018 02:00:00 6,3 3,6 3,4 8,7 12,5 14,6 4 2 5 3 NW 1028,0 19 0 0,0
21.10.2018 01:00:00 7,1 3,6 3,0 9,6 12,7 14,6 2 1 8 5 W 1027,9 23 0 0,0
21.10.2018 00:00:00 8,6 3,8 6,2 10,9 12,9 14,7 5 3 8 4 W 1027,9 29 0 0,0
20.10.2018 23:00:00 9,7 3,6 8,8 11,2 13,1 14,7 5 3 12 7 W 1028,0 31 0 0,0
20.10.2018 22:00:00 9,7 3,5 8,8 11,4 13,3 14,7 8 5 13 7 W 1028,3 36 0 0,0
20.10.2018 21:00:00 10,1 3,7 9,6 12,0 13,4 14,7 8 5 16 9 W 1028,1 40 0 0,0
20.10.2018 20:00:00 10,5 3,5 10,0 12,4 13,6 14,7 13 7 22 12 WNW 1028,0 44 0 0,0
20.10.2018 19:00:00 11,1 3,3 10,7 13,0 13,7 14,7 11 6 22 12 W 1027,9 48 0 0,0
20.10.2018 18:00:00 11,6 3,2 11,3 13,8 13,8 14,7 15 8 26 14 W 1027,8 62 0 0,0
20.10.2018 17:00:00 12,2 2,7 12,2 14,8 13,6 14,7 16 9 27 15 W 1027,7 58 18 0,0
20.10.2018 16:00:00 13,7 2,3 15,4 16,3 13,3 14,7 17 9 26 14 W 1027,6 34 25 0,0
20.10.2018 15:00:00 13,6 2,9 14,7 16,8 12,8 14,7 13 7 29 16 WNW 1027,9 50 22 0,0
20.10.2018 14:00:00 13,8 1,0 18,3 16,5 12,2 14,7 13 7 29 15 WNW 1028,0 39 60 0,0
20.10.2018 13:00:00 13,1 1,2 16,7 14,5 11,8 14,7 13 7 26 14 WNW 1028,2 36 38 0,0
20.10.2018 12:00:00 11,5 3,2 13,1 12,7 11,5 14,7 12 7 19 10 WNW 1028,5 41 0 0,0
20.10.2018 11:00:00 10,8 3,2 11,6 11,7 11,3 14,7 8 5 16 8 W 1028,1 49 1 0,0
20.10.2018 10:00:00 9,1 4,2 9,8 10,0 11,3 14,7 3 1 8 4 W 1028,0 39 0 0,0
20.10.2018 09:00:00 7,0 4,5 7,2 8,9 11,3 14,7 4 2 8 4 WZW 1027,7 27 0 0,0
20.10.2018 08:00:00 5,6 4,0 5,4 8,5 11,4 14,7 4 2 7 4 W 1027,2 25 0 0,0
20.10.2018 07:00:00 5,7 4,0 5,4 8,6 11,5 14,7 5 3 9 5 W 1026,7 27 0 0,0
20.10.2018 06:00:00 5,2 3,7 5,2 8,4 11,6 14,7 6 4 9 5 WNW 1026,7 21 0 0,0
20.10.2018 05:00:00 4,4 3,3 4,2 8,0 11,9 14,7 4 2 6 4 W 1026,5 21 0 0,0
20.10.2018 04:00:00 3,5 2,2 2,7 7,7 12,1 14,7 3 2 9 5 W 1026,3 18 0 0,0
20.10.2018 03:00:00 3,1 2,0 0,1 7,6 12,5 14,7 2 1 8 4 WZW 1026,2 12 0 0,0
20.10.2018 02:00:00 3,5 2,5 0,3 8,1 12,9 14,7 4 2 6 3 WNW 1026,0 17 0 0,0
20.10.2018 01:00:00 4,5 3,3 1,4 8,7 13,3 14,7 5 3 7 4 W 1025,8 23 0 0,0
20.10.2018 00:00:00 4,7 3,3 1,9 9,4 13,6 14,7 5 3 10 6 WNW 1025,8 25 0 0,0
19.10.2018 23:00:00 5,6 3,4 2,7 10,2 14,0 14,7 5 3 7 4 W 1025,8 26 0 0,0
19.10.2018 22:00:00 6,8 4,2 4,1 11,1 14,4 14,7 5 3 9 5 WNW 1025,7 31 0 0,0
19.10.2018 21:00:00 8,4 4,8 5,7 12,2 14,7 14,7 6 4 11 6 WNW 1025,5 44 0 0,0
19.10.2018 20:00:00 10,1 5,5 8,7 13,2 14,9 14,7 6 4 8 5 WNW 1025,0 41 0 0,0
19.10.2018 19:00:00 11,3 5,2 8,6 14,1 15,1 14,7 4 2 7 4 WNW 1024,6 45 0 0,0
19.10.2018 18:00:00 13,7 5,9 12,9 15,8 15,2 14,7 3 2 11 6 NNW 1024,3 59 16 0,0
19.10.2018 17:00:00 14,3 6,0 14,8 16,7 15,1 14,7 6 3 15 8 NW 1024,3 57 0 0,0
19.10.2018 16:00:00 14,3 5,4 15,1 17,5 14,9 14,7 7 4 19 10 NW 1024,5 61 0 0,0
19.10.2018 15:00:00 14,2 6,0 15,6 18,0 14,6 14,7 8 4 17 9 NW 1024,9 52 0 0,0
19.10.2018 14:00:00 14,2 7,4 17,5 18,3 14,1 14,7 8 4 18 10 NNW 1025,0 20 37 0,0
19.10.2018 13:00:00 13,7 8,4 17,0 17,1 13,7 14,7 9 5 21 12 NW 1025,2 16 40 0,0
19.10.2018 12:00:00 12,5 7,5 15,6 15,5 13,4 14,7 7 4 15 8 NW 1025,6 32 52 0,0
19.10.2018 11:00:00 10,6 7,1 12,9 13,7 13,3 14,7 7 4 14 8 NW 1025,4 32 0 0,0
19.10.2018 10:00:00 10,0 7,1 10,9 12,6 13,3 14,7 5 3 14 8 NNW 1025,2 39 0 0,0
19.10.2018 09:00:00 8,8 6,5 8,9 11,7 13,5 14,7 7 4 14 8 NW 1024,7 37 0 0,0
19.10.2018 08:00:00 8,8 6,5 8,5 11,9 13,6 14,7 8 5 16 9 NW 1024,3 40 0 0,0
19.10.2018 07:00:00 9,6 7,0 9,5 12,3 13,7 14,7 7 4 13 7 WNW 1023,9 38 0 0,0
19.10.2018 06:00:00 10,3 7,3 10,2 12,5 13,8 14,7 7 4 15 8 NNW 1023,5 40 0 0,0
19.10.2018 05:00:00 11,0 7,7 10,8 12,8 13,9 14,7 6 4 14 7 NW 1023,6 43 0 0,0
19.10.2018 04:00:00 11,6 8,0 11,4 13,1 14,0 14,7 6 3 17 9 NW 1023,4 43 0 0,0
19.10.2018 03:00:00 12,2 8,0 12,0 13,3 14,1 14,8 6 3 16 9 NNW 1023,4 45 0 0,0
19.10.2018 02:00:00 12,5 8,0 12,3 13,4 14,3 14,8 7 4 19 10 NNW 1023,5 50 0 0,0
19.10.2018 01:00:00 12,8 8,6 12,5 13,7 14,4 14,8 9 5 19 10 NNW 1023,4 46 0 0,0
19.10.2018 00:00:00 13,0 10,0 12,7 13,9 14,5 14,8 5 3 17 9 NNW 1023,2 26 0 0,0
18.10.2018 23:00:00 13,1 10,8 12,9 14,1 14,6 14,8 9 5 26 14 N 1022,9 8 0 0,0
18.10.2018 22:00:00 13,3 11,5 13,2 14,6 14,7 14,8 10 6 27 14 N 1022,7 4,7 0 0,0
18.10.2018 21:00:00 14,0 12,1 13,9 14,9 14,8 14,8 6 4 18 10 NNW 1022,0 3,9 0 0,0
18.10.2018 20:00:00 14,4 11,8 14,2 15,1 14,9 14,8 9 5 21 12 NNW 1021,6 3,8 0 0,0
18.10.2018 19:00:00 14,4 11,5 14,1 15,4 14,9 14,8 8 4 20 11 NNW 1021,2 4,8 0 0,0
18.10.2018 18:00:00 15,2 11,1 14,3 16,3 14,9 14,8 11 6 25 13 NW 1020,6 8 0 0,0
18.10.2018 17:00:00 17,9 10,4 17,5 17,7 14,6 14,8 10 5 22 12 NW 1020,0 8 53 0,0
18.10.2018 16:00:00 19,2 9,6 21,2 18,7 14,2 14,8 14 8 21 11 WNW 1019,8 9 60 0,0
18.10.2018 15:00:00 19,7 9,1 21,5 18,7 13,6 14,8 8 5 17 9 WNW 1019,6 9 49 0,0
18.10.2018 14:00:00 18,0 9,6 19,7 18,3 13,0 14,8 8 4 14 8 WNW 1020,0 6 45 0,0
18.10.2018 13:00:00 17,1 9,2 20,4 16,9 12,3 14,8 6 3 12 7 WNW 1020,1 8 60 0,0
18.10.2018 12:00:00 13,8 8,6 16,3 14,5 11,9 14,8 5 3 11 6 WNW 1020,1 5 60 0,0
18.10.2018 11:00:00 9,1 7,2 12,5 12,0 11,7 14,8 0 0 6 3 N 1020,2 2,5 24 0,0
18.10.2018 10:00:00 6,9 6,3 7,9 10,2 11,7 14,8 3 2 6 3 Z 1020,4 0,2 0 0,0
18.10.2018 09:00:00 5,8 5,3 6,2 9,0 11,8 14,8 0 0 9 5 N 1020,4 0,1 0 0,0
18.10.2018 08:00:00 4,3 3,8 4,4 8,6 11,9 14,8 2 1 5 3 WNW 1019,9 0,2 0 0,0
18.10.2018 07:00:00 4,4 4,0 4,2 8,7 12,1 14,8 5 3 6 4 ZO 1019,3 0,1 0 0,0
18.10.2018 06:00:00 4,9 4,4 4,9 8,8 12,3 14,8 2 1 9 5 W 1019,5 0,2 0 0,0
18.10.2018 05:00:00 4,8 4,1 4,0 9,0 12,6 14,8 4 2 6 3 W 1019,4 0,2 0 0,0
18.10.2018 04:00:00 5,3 4,8 3,7 9,1 12,8 14,8 1 1 4 2 ZW 1019,3 0,2 0 0,0
18.10.2018 03:00:00 5,8 5,1 4,1 9,5 13,1 14,8 0 0 4 2 N 1019,5 2,5 0 0,0
18.10.2018 02:00:00 6,9 6,1 4,7 9,9 13,4 14,8 3 2 5 3 W 1019,5 2,3 0 0,0
18.10.2018 01:00:00 7,4 6,4 4,9 10,4 13,7 14,8 0 0 7 4 N 1019,8 3,1 0 0,0
18.10.2018 00:00:00 8,1 6,2 5,9 10,9 14,0 14,8 4 2 6 4 O 1019,6 5 0 0,0

tt = temperatuur
td = dauwpunt
tt 5cm = temperatuur 5cm
tt -5cm = temperatuur -5cm
tt -20cm = temperatuur -20cm
tt -100cm = temperatuur -100cm
ff = windsnelheid
fx = windstoten
dd = windrichting
ppp = luchtdruk
vv = zicht
sd = Zonneschijnduur
rr = neerslag

Weerstations in de omgeving